This is the latest recevied weather packets stored in our database for station/object N4AR. If no packets are shown the sender has not sent any weather packets the latest 10 day(s).
| Time | Temp. | Humidity | Pressure | Rain* | Wind** | Luminosity | Snow |
|---|---|---|---|---|---|---|---|
| 1777829697 | 17.22° C | 27% | 1017.7 hPa | 0 mm | - | 924 W/m² | - |
| 1777829394 | 16.67° C | 30% | 1017.8 hPa | 0 mm | - | 923 W/m² | - |
| 1777829092 | 16.67° C | 29% | 1017.7 hPa | 0 mm | - | 922 W/m² | - |
| 1777828788 | 16.67° C | 30% | 1017.7 hPa | 0 mm | - | 71 W/m² | - |
| 1777828485 | 16.11° C | 29% | 1017.9 hPa | 0 mm | - | 117 W/m² | - |
| 1777828183 | 16.11° C | 30% | 1017.8 hPa | 0 mm | - | 602 W/m² | - |
| 1777827878 | 15.56° C | 30% | 1018 hPa | 0 mm | - | 912 W/m² | - |
| 1777827576 | 16.11° C | 30% | 1017.9 hPa | 0 mm | - | 285 W/m² | - |
| 1777827273 | 15.56° C | 32% | 1018.1 hPa | 0 mm | - | 431 W/m² | - |
| 1777826969 | 15.56° C | 33% | 1017.9 hPa | 0 mm | - | 718 W/m² | - |
| 1777826667 | 15.56° C | 32% | 1018.1 hPa | 0 mm | - | 898 W/m² | - |
| 1777826363 | 15.56° C | 32% | 1018.2 hPa | 0 mm | - | 890 W/m² | - |
| 1777826061 | 15.56° C | 33% | 1018.3 hPa | 0 mm | - | 890 W/m² | - |
| 1777825757 | 15° C | 32% | 1018.4 hPa | 0 mm | - | 882 W/m² | - |
| 1777825455 | 15.56° C | 34% | 1018.2 hPa | 0 mm | - | 697 W/m² | - |
| 1777825152 | 15° C | 34% | 1018.3 hPa | 0 mm | - | 72 W/m² | - |
| 1777824848 | 15.56° C | 32% | 1018.2 hPa | 0 mm | - | 644 W/m² | - |
| 1777824545 | 15° C | 34% | 1018.4 hPa | 0 mm | - | 857 W/m² | - |
| 1777824241 | 15° C | 34% | 1018.5 hPa | 0 mm | - | 848 W/m² | - |
| 1777823937 | 15.56° C | 34% | 1018.6 hPa | 0 mm | - | 841 W/m² | - |
| 1777823634 | 15° C | 34% | 1018.5 hPa | 0 mm | - | 828 W/m² | - |
| 1777823331 | 15° C | 34% | 1018.5 hPa | 0 mm | - | 822 W/m² | - |
| 1777823029 | 15° C | 32% | 1018.6 hPa | 0 mm | - | 813 W/m² | - |
| 1777822727 | 15° C | 33% | 1018.7 hPa | 0 mm | - | 799 W/m² | - |
| 1777822425 | 14.44° C | 35% | 1018.5 hPa | 0 mm | - | 791 W/m² | - |
* Rain latest hour (hover to see other rain measurements)
** Current wind speed in m/s (hover to see current wind gust speed)